When you browse on this site, cookies collect data to enhance your experience and personalize the content and advertising you see.
Visit our Privacy Policy to learn more. By continuing to use the site, you agree to this use of cookies and data.
  • In Hungary
  • List of Countries
  • For 7 days
  • Water Temperature
  • Satellite Maps
  • Weather Map
  • News
  • Weather Widgets
  • user-avatar
    Login

    Hourly Weather Chhatarpur

    Today, 21 November, Wednesday

    Time Temperature Precipitation Wind Pressure Humidity
    00:00 +23°C° 0 mm 1 mps 735 mmHg 41%
    01:00 +22°C° 0 mm 1 mps 735 mmHg 42%
    02:00 +22°C° 0 mm 1 mps 735 mmHg 43%
    03:00 +22°C° 0 mm 1 mps 735 mmHg 44%
    04:00 +19°C° 0 mm 0 mps 735 mmHg 45%
    05:00 +19°C° 0 mm 0 mps 735 mmHg 46%
    06:00 +20°C° 0 mm 0 mps 735 mmHg 43%
    07:00 +22°C° 0 mm 0 mps 736 mmHg 41%
    08:00 +23°C° 0 mm 0 mps 736 mmHg 38%
    09:00 +27°C° 0 mm 1 mps 736 mmHg 34%
    10:00 +29°C° 0 mm 1 mps 736 mmHg 30%
    11:00 +30°C° 0 mm 2 mps 736 mmHg 26%
    12:00 +31°C° 0 mm 2 mps 735 mmHg 24%
    13:00 +32°C° 0 mm 2 mps 735 mmHg 23%
    14:00 +33°C° 0 mm 3 mps 734 mmHg 21%
    15:00 +30°C° 0 mm 2 mps 734 mmHg 23%
    16:00 +29°C° 0 mm 2 mps 734 mmHg 25%
    17:00 +27°C° 0 mm 2 mps 734 mmHg 27%
    18:00 +26°C° 0 mm 2 mps 734 mmHg 28%
    19:00 +25°C° 0 mm 1 mps 735 mmHg 30%
    20:00 +24°C° 0 mm 1 mps 735 mmHg 31%
    21:00 +24°C° 0 mm 1 mps 735 mmHg 32%
    22:00 +23°C° 0 mm 1 mps 735 mmHg 33%
    23:00 +23°C° 0 mm 1 mps 735 mmHg 34%

    Tomorrow, 22 November, Thursday

    Time Temperature Precipitation Wind Pressure Humidity
    00:00 +22°C° 0 mm 1 mps 735 mmHg 35%
    01:00 +22°C° 0 mm 1 mps 735 mmHg 36%
    02:00 +21°C° 0 mm 1 mps 735 mmHg 37%
    03:00 +19°C° 0 mm 0 mps 735 mmHg 37%
    04:00 +18°C° 0 mm 0 mps 735 mmHg 38%
    05:00 +18°C° 0 mm 0 mps 735 mmHg 39%
    06:00 +22°C° 0 mm 1 mps 735 mmHg 36%
    07:00 +23°C° 0 mm 1 mps 736 mmHg 34%
    08:00 +25°C° 0 mm 1 mps 736 mmHg 32%
    09:00 +27°C° 0 mm 1 mps 737 mmHg 28%
    10:00 +29°C° 0 mm 1 mps 737 mmHg 25%
    11:00 +31°C° 0 mm 1 mps 737 mmHg 21%
    12:00 +31°C° 0 mm 1 mps 736 mmHg 21%
    13:00 +31°C° 0 mm 1 mps 735 mmHg 20%
    14:00 +32°C° 0 mm 1 mps 735 mmHg 20%
    15:00 +30°C° 0 mm 2 mps 735 mmHg 22%
    16:00 +29°C° 0 mm 2 mps 734 mmHg 24%
    17:00 +27°C° 0 mm 2 mps 734 mmHg 26%
    18:00 +26°C° 0 mm 2 mps 735 mmHg 27%
    19:00 +25°C° 0 mm 2 mps 735 mmHg 28%
    20:00 +25°C° 0 mm 2 mps 736 mmHg 28%
    21:00 +24°C° 0 mm 1 mps 736 mmHg 29%
    22:00 +24°C° 0 mm 1 mps 736 mmHg 29%
    23:00 +23°C° 0 mm 1 mps 736 mmHg 30%

    Day after tomorrow, 23 November, Friday

    Time Temperature Precipitation Wind Pressure Humidity
    00:00 +23°C° 0 mm 1 mps 736 mmHg 30%
    01:00 +20°C° 0 mm 0 mps 735 mmHg 31%
    02:00 +19°C° 0 mm 0 mps 735 mmHg 32%
    03:00 +19°C° 0 mm 0 mps 735 mmHg 33%
    04:00 +19°C° 0 mm 0 mps 735 mmHg 34%
    05:00 +19°C° 0 mm 0 mps 735 mmHg 34%
    06:00 +20°C° 0 mm 0 mps 736 mmHg 33%
    07:00 +23°C° 0 mm 1 mps 737 mmHg 31%
    08:00 +25°C° 0 mm 1 mps 738 mmHg 29%
    09:00 +27°C° 0 mm 1 mps 737 mmHg 27%
    10:00 +28°C° 0 mm 2 mps 737 mmHg 24%
    11:00 +30°C° 0 mm 2 mps 737 mmHg 22%
    12:00 +31°C° 0 mm 3 mps 737 mmHg 21%
    13:00 +32°C° 0 mm 4 mps 736 mmHg 19%
    14:00 +33°C° 0 mm 5 mps 735 mmHg 18%
    15:00 +30°C° 0 mm 4 mps 735 mmHg 20%
    16:00 +28°C° 0 mm 3 mps 735 mmHg 22%
    17:00 +26°C° 0 mm 3 mps 735 mmHg 24%
    18:00 +25°C° 0 mm 2 mps 735 mmHg 25%
    19:00 +24°C° 0 mm 2 mps 736 mmHg 26%
    20:00 +23°C° 0 mm 2 mps 737 mmHg 27%
    21:00 +21°C° 0 mm 2 mps 736 mmHg 28%
    22:00 +21°C° 0 mm 2 mps 736 mmHg 29%
    23:00 +20°C° 0 mm 2 mps 736 mmHg 30%

    24 November, Saturday

    Time Temperature Precipitation Wind Pressure Humidity
    00:00 +20°C° 0 mm 2 mps 736 mmHg 31%
    01:00 +20°C° 0 mm 2 mps 735 mmHg 32%
    02:00 +19°C° 0 mm 2 mps 735 mmHg 32%
    03:00 +19°C° 0 mm 2 mps 735 mmHg 33%
    04:00 +18°C° 0 mm 2 mps 735 mmHg 34%
    05:00 +18°C° 0 mm 2 mps 735 mmHg 35%
    06:00 +19°C° 0 mm 2 mps 736 mmHg 33%
    07:00 +21°C° 0 mm 2 mps 736 mmHg 31%
    08:00 +22°C° 0 mm 3 mps 737 mmHg 29%
    09:00 +25°C° 0 mm 3 mps 737 mmHg 25%
    10:00 +27°C° 0 mm 3 mps 737 mmHg 22%
    11:00 +29°C° 0 mm 4 mps 737 mmHg 18%
    12:00 +30°C° 0 mm 4 mps 736 mmHg 16%
    13:00 +30°C° 0 mm 4 mps 735 mmHg 15%
    14:00 +32°C° 0 mm 4 mps 735 mmHg 14%
    15:00 +29°C° 0 mm 3 mps 735 mmHg 16%
    16:00 +27°C° 0 mm 3 mps 734 mmHg 19%
    17:00 +25°C° 0 mm 2 mps 734 mmHg 21%
    18:00 +24°C° 0 mm 2 mps 735 mmHg 23%
    19:00 +23°C° 0 mm 1 mps 735 mmHg 24%
    20:00 +22°C° 0 mm 1 mps 736 mmHg 26%
    21:00 +21°C° 0 mm 1 mps 736 mmHg 27%
    22:00 +21°C° 0 mm 1 mps 735 mmHg 28%
    23:00 +20°C° 0 mm 1 mps 735 mmHg 29%

    25 November, Sunday

    Time Temperature Precipitation Wind Pressure Humidity
    00:00 +20°C° 0 mm 1 mps 735 mmHg 30%
    01:00 +19°C° 0 mm 1 mps 735 mmHg 31%
    02:00 +19°C° 0 mm 1 mps 734 mmHg 32%
    03:00 +19°C° 0 mm 1 mps 734 mmHg 33%
    04:00 +18°C° 0 mm 1 mps 734 mmHg 34%
    05:00 +18°C° 0 mm 1 mps 734 mmHg 35%
    06:00 +19°C° 0 mm 1 mps 735 mmHg 33%
    07:00 +21°C° 0 mm 1 mps 736 mmHg 31%
    08:00 +22°C° 0 mm 1 mps 736 mmHg 30%
    09:00 +24°C° 0 mm 2 mps 736 mmHg 25%
    10:00 +26°C° 0 mm 2 mps 736 mmHg 21%
    11:00 +29°C° 0 mm 2 mps 736 mmHg 17%
    12:00 +29°C° 0 mm 2 mps 735 mmHg 16%
    13:00 +30°C° 0 mm 2 mps 734 mmHg 15%
    14:00 +31°C° 0 mm 3 mps 733 mmHg 14%
    15:00 +29°C° 0 mm 2 mps 733 mmHg 16%
    16:00 +27°C° 0 mm 2 mps 733 mmHg 18%
    17:00 +25°C° 0 mm 2 mps 733 mmHg 21%
    18:00 +24°C° 0 mm 2 mps 734 mmHg 22%
    19:00 +23°C° 0 mm 1 mps 734 mmHg 24%
    20:00 +22°C° 0 mm 1 mps 735 mmHg 26%
    21:00 +21°C° 0 mm 1 mps 734 mmHg 27%
    22:00 +21°C° 0 mm 1 mps 734 mmHg 28%
    23:00 +18°C° 0 mm 0 mps 734 mmHg 30%

    26 November, Monday

    Time Temperature Precipitation Wind Pressure Humidity
    00:00 +18°C° 0 mm 0 mps 734 mmHg 31%
    01:00 +17°C° 0 mm 0 mps 734 mmHg 32%
    02:00 +17°C° 0 mm 0 mps 733 mmHg 33%
    03:00 +16°C° 0 mm 0 mps 733 mmHg 34%
    04:00 +18°C° 0 mm 1 mps 734 mmHg 35%
    05:00 +18°C° 0 mm 1 mps 734 mmHg 36%
    06:00 +19°C° 0 mm 1 mps 734 mmHg 34%
    07:00 +21°C° 0 mm 1 mps 735 mmHg 33%
    08:00 +22°C° 0 mm 1 mps 735 mmHg 31%
    09:00 +24°C° 0 mm 1 mps 735 mmHg 27%
    10:00 +26°C° 0 mm 2 mps 735 mmHg 23%
    11:00 +28°C° 0 mm 2 mps 735 mmHg 19%
    12:00 +29°C° 0 mm 3 mps 734 mmHg 18%
    13:00 +30°C° 0 mm 3 mps 733 mmHg 17%
    14:00 +30°C° 0 mm 3 mps 733 mmHg 16%
    15:00 +28°C° 0 mm 3 mps 733 mmHg 19%
    16:00 +26°C° 0 mm 2 mps 733 mmHg 22%
    17:00 +24°C° 0 mm 2 mps 733 mmHg 25%
    18:00 +23°C° 0 mm 2 mps 733 mmHg 27%
    19:00 +22°C° 0 mm 1 mps 734 mmHg 30%
    20:00 +21°C° 0 mm 1 mps 734 mmHg 32%
    21:00 +21°C° 0 mm 1 mps 734 mmHg 34%
    22:00 +20°C° 0 mm 1 mps 734 mmHg 36%
    23:00 +17°C° 0 mm 0 mps 734 mmHg 37%
    Show more